This demonstration page uses our WeatherBlox Daily Observations layout. Learn more.

39.29038, -76.61219

Hourly Observations for December 9, 2019

Temp ( °F °C ) Dew Point ( °F °C ) Humidity (%) Winds ( mph kmh ) Pressure ( in mb ) Visibility ( mi km ) Precip ( " mm )
12:54 am 00:54 undefined 44 6.7 40 4.4 85 85 undefined N/A 30.28 1025 N/A 0 0
1:54 am 01:54 undefined 44 6.7 41 5 89 89 undefined N/A 30.24 1024 N/A 0 0
2:54 am 02:54 undefined 44 6.7 42 5.6 93 93 undefined N/A 30.2 1023 N/A 0.02 0.508
3:54 am 03:54 undefined 43 6.1 42 5.6 97 97 undefined N/A 30.14 1021 N/A 0.01 0.254
4:54 am 04:54 undefined 44 6.7 43 6.1 96 96 undefined N/A 30.13 1020 N/A 0 0
5:54 am 05:54 undefined 45 7.2 43 6.1 93 93 undefined N/A 30.13 1020 N/A 0 0
6:54 am 06:54 undefined 45 7.2 44 6.7 97 97 undefined N/A 30.11 1020 N/A 0 0
7:54 am 07:54 undefined 45 7.2 44 6.7 97 97 undefined N/A 30.09 1019 N/A 0 0
8:54 am 08:54 undefined 46 7.8 44 6.7 93 93 undefined N/A 30.09 1019 N/A 0 0
9:54 am 09:54 undefined 46 7.8 44 6.7 93 93 undefined N/A 30.09 1019 N/A 0 0
10:54 am 10:54 undefined 47 8.3 46 7.8 97 97 undefined N/A 30.06 1018 N/A 0.04 1.016
11:54 am 11:54 undefined 47 8.3 46 7.8 97 97 undefined N/A 30.03 1017 N/A 0.08 2.032
12:54 pm 12:54 undefined 48 8.9 46 7.8 93 93 undefined N/A 29.98 1015 N/A 0.08 2.032
1:54 pm 13:54 undefined 47 8.3 45 7.2 93 93 undefined N/A 29.94 1014 N/A 0.16 4.064
2:54 pm 14:54 undefined 47 8.3 45 7.2 93 93 undefined N/A 29.91 1013 N/A 0.1 2.54
3:54 pm 15:54 undefined 47 8.3 46 7.8 97 97 undefined N/A 29.89 1012 N/A 0.13 3.302
4:54 pm 16:54 undefined 48 8.9 46 7.8 93 93 undefined N/A 29.86 1011 N/A 0.08 2.032
5:54 pm 17:54 undefined 48 8.9 46 7.8 93 93 undefined N/A 29.85 1011 N/A 0 0
6:54 pm 18:54 undefined 49 9.4 47 8.3 93 93 undefined N/A 29.83 1010 N/A 0.01 0.254
7:54 pm 19:54 undefined 50 10 48 8.9 93 93 undefined N/A 29.82 1010 N/A 0.01 0.254
8:54 pm 20:54 undefined 50 10 48 8.9 93 93 undefined N/A 29.82 1010 N/A 0.03 0.762
9:54 pm 21:54 undefined 51 10.6 49 9.4 92 92 undefined N/A 29.8 1009 N/A 0.02 0.508
10:54 pm 22:54 undefined 52 11.1 49 9.4 89 89 undefined N/A 29.81 1009 N/A 0.01 0.254
11:54 pm 23:54 undefined 52 11.1 49 9.4 89 89 undefined N/A 29.8 1009 N/A 0 0

Powered by AerisWeather